Time,TemperatureF,DewpointF,PressureIn,WindDirection,WindDirectionDegrees,WindSpeedMPH,WindSpeedGustMPH,Humidity,HourlyPrecipIn,Conditions,Clouds,dailyrainin,SolarRadiationWatts/m^2,SoftwareType,DateUTC
2013-01-12 00:01:00,27.4,25.1,30.17,SSE,155,6.9,6.9,91,0.00,RA,FEW,0.00,0.0,WeatherDisplay:10.37,2013-01-12 05:01:00,
2013-01-12 00:02:00,27.4,25.1,30.17,SSE,157,6.0,6.0,91,0.00,RA,FEW,0.00,0.0,WeatherDisplay:10.37,2013-01-12 05:02:00,
2013-01-12 00:04:00,27.4,24.9,30.17,SSE,163,4.0,4.0,90,0.00,RA,FEW,0.00,0.0,WeatherDisplay:10.37,2013-01-12 05:04:00,
2013-01-12 00:09:00,27.3,25.0,30.17,SE,134,9.2,9.2,91,0.00,RA,FEW,0.00,0.0,WeatherDisplay:10.37,2013-01-12 05:09:00,
2013-01-12 00:14:00,27.1,24.8,30.17,SE,138,4.0,4.0,91,0.00,OVC,FEW,0.00,0.0,WeatherDisplay:10.37,2013-01-12 05:14:00,
2013-01-12 00:19:00,27.2,25.2,30.17,SE,140,6.0,6.0,92,0.00,OVC,FEW,0.00,0.0,WeatherDisplay:10.37,2013-01-12 05:19:00,
2013-01-12 00:24:00,27.3,25.3,30.17,SSE,159,5.0,5.0,92,0.00,OVC,FEW,0.00,0.0,WeatherDisplay:10.37,2013-01-12 05:24:00,
2013-01-12 00:29:00,27.4,25.4,30.17,South,178,5.8,5.8,92,0.00,OVC,FEW,0.00,0.0,WeatherDisplay:10.37,2013-01-12 05:29:00,
2013-01-12 00:34:00,27.5,25.5,30.17,SE,145,5.0,5.0,92,0.00,OVC,FEW,0.00,0.0,WeatherDisplay:10.37,2013-01-12 05:34:00,
2013-01-12 00:39:00,27.4,25.4,30.17,SE,146,6.0,6.0,92,0.00,OVC,FEW,0.00,0.0,WeatherDisplay:10.37,2013-01-12 05:39:00,
2013-01-12 00:44:00,27.4,25.4,30.17,SSW,192,4.6,4.6,92,0.00,OVC,FEW,0.00,0.0,WeatherDisplay:10.37,2013-01-12 05:44:00,
2013-01-12 00:49:00,27.5,25.5,30.17,SE,132,6.0,6.0,92,0.00,OVC,FEW,0.00,0.0,WeatherDisplay:10.37,2013-01-12 05:49:00,
2013-01-12 00:54:00,27.5,25.7,30.17,SE,144,4.6,4.6,93,0.00,OVC,FEW,0.00,0.0,WeatherDisplay:10.37,2013-01-12 05:54:00,
2013-01-12 00:59:00,27.4,25.6,30.17,SSE,151,4.6,4.6,93,0.00,OVC,FEW,0.00,0.0,WeatherDisplay:10.37,2013-01-12 05:59:00,
2013-01-12 01:04:00,27.4,25.6,30.17,SSE,155,3.5,3.5,93,0.00,OVC,FEW,0.00,0.0,WeatherDisplay:10.37,2013-01-12 06:04:00,
2013-01-12 01:09:00,27.4,25.6,30.17,South,182,5.0,5.0,93,0.00,OVC,FEW,0.00,0.0,WeatherDisplay:10.37,2013-01-12 06:09:00,
2013-01-12 01:14:00,27.5,25.7,30.17,SSE,167,3.5,3.5,93,0.00,OVC,FEW,0.00,0.0,WeatherDisplay:10.37,2013-01-12 06:14:00,
2013-01-12 01:19:00,27.5,25.7,30.17,South,170,6.9,6.9,93,0.00,OVC,FEW,0.00,0.0,WeatherDisplay:10.37,2013-01-12 06:19:00,
2013-01-12 01:24:00,27.7,25.9,30.17,SE,143,4.0,4.0,93,0.00,OVC,FEW,0.00,0.0,WeatherDisplay:10.37,2013-01-12 06:24:00,
2013-01-12 01:29:00,27.6,25.8,30.17,SSE,165,5.0,5.0,93,0.00,OVC,FEW,0.00,0.0,WeatherDisplay:10.37,2013-01-12 06:29:00,
2013-01-12 01:34:00,27.6,25.8,30.18,SSE,159,2.3,2.3,93,0.00,OVC,FEW,0.00,0.0,WeatherDisplay:10.37,2013-01-12 06:34:00,
2013-01-12 01:39:00,27.6,26.1,30.18,SE,138,6.0,6.0,94,0.00,OVC,FEW,0.00,0.0,WeatherDisplay:10.37,2013-01-12 06:39:00,
2013-01-12 01:44:00,27.7,26.2,30.17,SE,135,6.0,6.0,94,0.00,OVC,FEW,0.00,0.0,WeatherDisplay:10.37,2013-01-12 06:44:00,
2013-01-12 01:49:00,27.8,26.3,30.17,SSE,150,5.0,5.0,94,0.00,OVC,FEW,0.00,0.0,WeatherDisplay:10.37,2013-01-12 06:49:00,
2013-01-12 01:54:00,28.0,26.5,30.17,SE,136,5.0,5.0,94,0.00,OVC,FEW,0.00,0.0,WeatherDisplay:10.37,2013-01-12 06:54:00,
2013-01-12 01:59:00,28.1,26.6,30.17,SE,146,4.0,4.0,94,0.00,OVC,FEW,0.00,0.0,WeatherDisplay:10.37,2013-01-12 06:59:00,
2013-01-12 02:04:00,28.2,26.7,30.17,ESE,123,3.5,3.5,94,0.00,OVC,FEW,0.00,0.0,WeatherDisplay:10.37,2013-01-12 07:04:00,
2013-01-12 02:09:00,28.2,26.7,30.17,ESE,121,3.5,3.5,94,0.00,OVC,FEW,0.00,0.0,WeatherDisplay:10.37,2013-01-12 07:09:00,
2013-01-12 02:14:00,28.1,26.6,30.17,SE,124,3.5,3.5,94,0.00,OVC,FEW,0.00,0.0,WeatherDisplay:10.37,2013-01-12 07:14:00,
2013-01-12 02:19:00,28.1,26.6,30.16,SE,130,5.0,5.0,94,0.00,OVC,FEW,0.00,0.0,WeatherDisplay:10.37,2013-01-12 07:19:00,
2013-01-12 02:24:00,28.1,26.6,30.16,SE,132,5.0,5.0,94,0.00,OVC,FEW,0.00,0.0,WeatherDisplay:10.37,2013-01-12 07:24:00,
2013-01-12 02:29:00,28.2,26.7,30.16,SE,128,5.0,5.0,94,0.00,OVC,FEW,0.00,0.0,WeatherDisplay:10.37,2013-01-12 07:29:00,
2013-01-12 02:34:00,28.2,26.7,30.16,SE,127,3.5,3.5,94,0.00,OVC,FEW,0.00,0.0,WeatherDisplay:10.37,2013-01-12 07:34:00,
2013-01-12 02:39:00,28.2,26.7,30.16,SE,127,1.0,1.0,94,0.00,OVC,FEW,0.00,0.0,WeatherDisplay:10.37,2013-01-12 07:39:00,
2013-01-12 02:44:00,28.3,26.8,30.16,SE,127,2.3,2.3,94,0.00,OVC,FEW,0.00,0.0,WeatherDisplay:10.37,2013-01-12 07:44:00,
2013-01-12 02:49:00,28.3,27.1,30.16,SE,128,3.5,3.5,95,0.00,OVC,FEW,0.00,0.0,WeatherDisplay:10.37,2013-01-12 07:49:00,
2013-01-12 02:54:00,28.4,27.2,30.16,ESE,123,3.5,3.5,95,0.00,OVC,FEW,0.00,0.0,WeatherDisplay:10.37,2013-01-12 07:54:00,
2013-01-12 02:59:00,28.6,27.4,30.16,ESE,123,3.5,3.5,95,0.00,OVC,FEW,0.00,0.0,WeatherDisplay:10.37,2013-01-12 07:59:00,
2013-01-12 03:04:00,28.8,27.5,30.16,SE,124,3.5,3.5,95,0.00,OVC,FEW,0.00,0.0,WeatherDisplay:10.37,2013-01-12 08:04:00,
2013-01-12 03:09:00,28.8,27.3,30.16,SE,124,2.3,2.3,94,0.00,OVC,FEW,0.00,0.0,WeatherDisplay:10.37,2013-01-12 08:09:00,
2013-01-12 03:14:00,28.9,27.4,30.16,SE,124,2.3,2.3,94,0.00,OVC,FEW,0.00,0.0,WeatherDisplay:10.37,2013-01-12 08:14:00,
2013-01-12 03:19:00,28.9,27.4,30.16,SE,125,2.0,2.0,94,0.00,OVC,FEW,0.00,0.0,WeatherDisplay:10.37,2013-01-12 08:19:00,
2013-01-12 03:24:00,28.9,27.4,30.15,SE,140,4.0,4.0,94,0.00,OVC,FEW,0.00,0.0,WeatherDisplay:10.37,2013-01-12 08:24:00,
2013-01-12 03:29:00,29.0,27.5,30.15,SE,140,4.0,4.0,94,0.00,OVC,FEW,0.00,0.0,WeatherDisplay:10.37,2013-01-12 08:29:00,
2013-01-12 03:34:00,29.1,27.6,30.15,SE,139,3.5,3.5,94,0.00,OVC,FEW,0.00,0.0,WeatherDisplay:10.37,2013-01-12 08:34:00,
2013-01-12 03:39:00,29.1,27.8,30.15,SE,139,1.1,0.0,95,0.00,OVC,FEW,0.00,0.0,WeatherDisplay:10.37,2013-01-12 08:39:00,
2013-01-12 03:44:00,29.2,27.9,30.15,SE,139,0.0,0.0,95,0.00,OVC,FEW,0.00,0.0,WeatherDisplay:10.37,2013-01-12 08:44:00,
2013-01-12 03:49:00,29.1,27.8,30.14,SE,139,1.1,1.1,95,0.00,OVC,FEW,0.00,0.0,WeatherDisplay:10.37,2013-01-12 08:49:00,
2013-01-12 03:54:00,29.1,27.8,30.14,SE,138,3.5,3.5,95,0.00,OVC,FEW,0.00,0.0,WeatherDisplay:10.37,2013-01-12 08:54:00,
2013-01-12 03:59:00,29.1,27.8,30.14,SE,138,3.5,3.5,95,0.00,OVC,FEW,0.00,0.0,WeatherDisplay:10.37,2013-01-12 08:59:00,
2013-01-12 04:04:00,29.2,27.9,30.14,SE,137,3.0,3.0,95,0.00,OVC,FEW,0.00,0.0,WeatherDisplay:10.37,2013-01-12 09:04:00,
2013-01-12 04:09:00,29.3,28.0,30.14,SE,139,3.5,3.5,95,0.00,OVC,FEW,0.00,0.0,WeatherDisplay:10.37,2013-01-12 09:09:00,
2013-01-12 04:14:00,29.3,28.0,30.14,SE,138,6.0,6.0,95,0.00,OVC,FEW,0.00,0.0,WeatherDisplay:10.37,2013-01-12 09:14:00,
2013-01-12 04:20:00,29.4,28.1,30.14,ESE,119,6.0,6.0,95,0.00,OVC,FEW,0.00,0.0,WeatherDisplay:10.37,2013-01-12 09:20:00,
2013-01-12 04:25:00,29.6,28.3,30.14,SE,138,5.0,5.0,95,0.00,OVC,FEW,0.00,0.0,WeatherDisplay:10.37,2013-01-12 09:25:00,
2013-01-12 04:30:00,29.7,28.4,30.13,SSE,147,6.9,6.9,95,0.00,OVC,FEW,0.00,0.0,WeatherDisplay:10.37,2013-01-12 09:30:00,
2013-01-12 04:35:00,29.7,28.4,30.14,SSE,167,4.0,4.0,95,0.00,OVC,FEW,0.00,0.0,WeatherDisplay:10.37,2013-01-12 09:35:00,
2013-01-12 04:40:00,29.7,28.4,30.14,SSE,153,4.0,4.0,95,0.00,OVC,FEW,0.00,0.0,WeatherDisplay:10.37,2013-01-12 09:40:00,
2013-01-12 04:45:00,29.8,28.5,30.13,SE,137,4.0,4.0,95,0.00,OVC,FEW,0.00,0.0,WeatherDisplay:10.37,2013-01-12 09:45:00,
2013-01-12 04:50:00,29.9,28.6,30.14,SSE,157,4.6,4.6,95,0.00,OVC,FEW,0.00,0.0,WeatherDisplay:10.37,2013-01-12 09:50:00,
2013-01-12 04:55:00,30.0,28.7,30.13,SSE,159,5.0,5.0,95,0.00,OVC,FEW,0.00,0.0,WeatherDisplay:10.37,2013-01-12 09:55:00,
2013-01-12 05:00:00,30.0,28.7,30.14,SE,130,5.8,5.8,95,0.00,OVC,FEW,0.00,0.0,WeatherDisplay:10.37,2013-01-12 10:00:00,
2013-01-12 05:05:00,30.0,28.7,30.14,SSE,147,1.1,1.1,95,0.00,OVC,FEW,0.00,0.0,WeatherDisplay:10.37,2013-01-12 10:05:00,
2013-01-12 05:10:00,30.0,28.7,30.14,SSE,150,3.5,0.0,95,0.00,OVC,FEW,0.00,0.0,WeatherDisplay:10.37,2013-01-12 10:10:00,
2013-01-12 05:15:00,30.0,28.7,30.13,SSE,147,2.3,2.3,95,0.00,OVC,FEW,0.00,0.0,WeatherDisplay:10.37,2013-01-12 10:15:00,
2013-01-12 05:20:00,30.0,28.7,30.13,SSE,150,4.0,4.0,95,0.00,OVC,FEW,0.00,0.0,WeatherDisplay:10.37,2013-01-12 10:20:00,
2013-01-12 05:25:00,29.9,28.6,30.13,SSE,153,3.5,3.5,95,0.00,OVC,FEW,0.00,0.0,WeatherDisplay:10.37,2013-01-12 10:25:00,
2013-01-12 05:30:00,29.8,28.5,30.13,SSE,153,2.3,2.3,95,0.00,OVC,FEW,0.00,0.0,WeatherDisplay:10.37,2013-01-12 10:30:00,
2013-01-12 05:35:00,29.8,28.8,30.14,SSE,153,0.0,0.0,96,0.00,OVC,FEW,0.00,0.0,WeatherDisplay:10.37,2013-01-12 10:35:00,
2013-01-12 05:40:00,29.8,28.8,30.14,SSE,153,1.1,1.1,96,0.00,OVC,FEW,0.00,0.0,WeatherDisplay:10.37,2013-01-12 10:40:00,
2013-01-12 05:45:00,29.9,28.9,30.14,SE,142,3.5,3.5,96,0.00,OVC,FEW,0.00,0.0,WeatherDisplay:10.37,2013-01-12 10:45:00,
2013-01-12 05:50:00,29.9,28.9,30.14,SE,142,1.1,1.1,96,0.00,OVC,FEW,0.00,0.0,WeatherDisplay:10.37,2013-01-12 10:50:00,
2013-01-12 05:55:00,29.8,28.8,30.14,SE,142,0.0,0.0,96,0.00,OVC,FEW,0.00,0.0,WeatherDisplay:10.37,2013-01-12 10:55:00,
2013-01-12 06:00:00,29.8,28.8,30.14,SE,141,4.0,4.0,96,0.00,OVC,FEW,0.00,0.0,WeatherDisplay:10.37,2013-01-12 11:00:00,
2013-01-12 06:05:00,29.9,28.9,30.14,SE,143,3.5,3.5,96,0.00,OVC,FEW,0.00,0.0,WeatherDisplay:10.37,2013-01-12 11:05:00,
2013-01-12 06:10:00,29.9,28.9,30.14,SE,145,1.1,0.0,96,0.00,OVC,FEW,0.00,0.0,WeatherDisplay:10.37,2013-01-12 11:10:00,
2013-01-12 06:15:00,29.9,28.9,30.14,SE,144,4.0,4.0,96,0.00,OVC,FEW,0.00,0.0,WeatherDisplay:10.37,2013-01-12 11:15:00,
2013-01-12 06:20:00,29.9,28.9,30.15,SE,145,3.0,3.0,96,0.00,OVC,FEW,0.00,0.0,WeatherDisplay:10.37,2013-01-12 11:20:00,
2013-01-12 06:25:00,29.9,28.9,30.15,SE,145,1.1,0.0,96,0.00,OVC,FEW,0.00,0.0,WeatherDisplay:10.37,2013-01-12 11:25:00,
2013-01-12 06:30:00,30.0,29.0,30.16,SE,145,1.1,1.1,96,0.00,OVC,FEW,0.00,0.0,WeatherDisplay:10.37,2013-01-12 11:30:00,
2013-01-12 06:35:00,30.0,29.0,30.16,SE,145,0.0,0.0,96,0.00,OVC,FEW,0.00,0.0,WeatherDisplay:10.37,2013-01-12 11:35:00,
2013-01-12 06:40:00,30.0,29.0,30.17,SE,145,0.0,0.0,96,0.00,OVC,FEW,0.00,0.0,WeatherDisplay:10.37,2013-01-12 11:40:00,
2013-01-12 06:45:00,30.0,29.0,30.17,SE,145,0.0,0.0,96,0.00,OVC,FEW,0.00,0.0,WeatherDisplay:10.37,2013-01-12 11:45:00,
2013-01-12 06:50:00,30.0,29.0,30.17,SE,145,0.0,0.0,96,0.00,OVC,FEW,0.00,0.0,WeatherDisplay:10.37,2013-01-12 11:50:00,
2013-01-12 06:55:00,30.0,29.0,30.16,SE,145,0.0,0.0,96,0.00,OVC,FEW,0.00,0.0,WeatherDisplay:10.37,2013-01-12 11:55:00,
2013-01-12 07:00:00,30.0,29.0,30.17,SE,145,0.0,0.0,96,0.00,OVC,FEW,0.00,0.0,WeatherDisplay:10.37,2013-01-12 12:00:00,
2013-01-12 07:05:00,30.0,29.0,30.17,SE,145,0.0,0.0,96,0.00,OVC,FEW,0.00,0.0,WeatherDisplay:10.37,2013-01-12 12:05:00,
2013-01-12 07:10:00,30.1,29.1,30.17,SE,145,0.0,0.0,96,0.00,OVC,FEW,0.00,0.0,WeatherDisplay:10.37,2013-01-12 12:10:00,
2013-01-12 07:15:00,30.2,29.2,30.17,SE,145,1.0,1.0,96,0.00,OVC,FEW,0.00,0.0,WeatherDisplay:10.37,2013-01-12 12:15:00,
2013-01-12 07:20:00,30.2,29.2,30.16,SE,145,2.3,2.3,96,0.00,OVC,FEW,0.00,0.0,WeatherDisplay:10.37,2013-01-12 12:20:00,
2013-01-12 07:25:00,30.2,29.2,30.16,SE,145,1.1,1.1,96,0.00,OVC,FEW,0.00,0.0,WeatherDisplay:10.37,2013-01-12 12:25:00,
2013-01-12 07:30:00,30.2,29.2,30.16,SE,145,1.0,1.0,96,0.00,OVC,FEW,0.00,0.0,WeatherDisplay:10.37,2013-01-12 12:30:00,
2013-01-12 07:35:00,30.2,29.2,30.16,SE,145,0.0,0.0,96,0.00,OVC,FEW,0.00,0.0,WeatherDisplay:10.37,2013-01-12 12:35:00,
2013-01-12 07:40:00,30.3,29.3,30.16,SE,145,1.0,0.0,96,0.00,OVC,FEW,0.00,5.0,WeatherDisplay:10.37,2013-01-12 12:40:00,
2013-01-12 07:45:00,30.3,29.3,30.15,SE,145,0.0,0.0,96,0.00,OVC,FEW,0.00,9.0,WeatherDisplay:10.37,2013-01-12 12:45:00,
2013-01-12 07:50:00,30.3,29.3,30.14,SE,145,1.1,1.1,96,0.00,OVC,FEW,0.00,14.0,WeatherDisplay:10.37,2013-01-12 12:50:00,
2013-01-12 07:55:00,30.4,29.4,30.14,SE,145,1.1,0.0,96,0.00,OVC,FEW,0.00,16.0,WeatherDisplay:10.37,2013-01-12 12:55:00,
2013-01-12 08:00:00,30.4,29.4,30.15,SE,145,0.0,0.0,96,0.00,OVC,FEW,0.00,18.0,WeatherDisplay:10.37,2013-01-12 13:00:00,
2013-01-12 08:05:00,30.5,29.8,30.15,SE,145,0.0,0.0,97,0.00,OVC,FEW,0.00,16.0,WeatherDisplay:10.37,2013-01-12 13:05:00,
2013-01-12 08:10:00,30.6,29.9,30.15,SE,145,0.0,0.0,97,0.00,OVC,FEW,0.00,14.0,WeatherDisplay:10.37,2013-01-12 13:10:00,
2013-01-12 08:15:00,30.7,30.0,30.16,SE,145,0.0,0.0,97,0.00,OVC,FEW,0.00,12.0,WeatherDisplay:10.37,2013-01-12 13:15:00,
2013-01-12 08:20:00,30.9,30.1,30.17,SE,145,0.0,0.0,97,0.00,OVC,FEW,0.00,11.0,WeatherDisplay:10.37,2013-01-12 13:20:00,
2013-01-12 08:25:00,30.9,30.1,30.16,SE,145,0.0,0.0,97,0.00,OVC,FEW,0.00,14.0,WeatherDisplay:10.37,2013-01-12 13:25:00,
2013-01-12 08:30:00,31.0,30.2,30.16,SE,145,0.0,0.0,97,0.00,OVC,FEW,0.00,23.0,WeatherDisplay:10.37,2013-01-12 13:30:00,
2013-01-12 08:35:00,31.0,30.2,30.17,SE,145,0.0,0.0,97,0.00,OVC,FEW,0.00,25.0,WeatherDisplay:10.37,2013-01-12 13:35:00,
2013-01-12 08:40:00,31.0,30.2,30.16,SE,145,0.0,0.0,97,0.00,OVC,FEW,0.00,28.0,WeatherDisplay:10.37,2013-01-12 13:40:00,
2013-01-12 08:45:00,31.1,30.3,30.16,SE,145,1.0,0.0,97,0.00,OVC,FEW,0.00,32.0,WeatherDisplay:10.37,2013-01-12 13:45:00,
2013-01-12 08:50:00,31.1,30.3,30.16,SE,145,0.0,0.0,97,0.00,OVC,FEW,0.00,30.0,WeatherDisplay:10.37,2013-01-12 13:50:00,
2013-01-12 08:55:00,31.2,30.4,30.16,SE,145,0.0,0.0,97,0.00,OVC,FEW,0.00,33.0,WeatherDisplay:10.37,2013-01-12 13:55:00,
2013-01-12 09:00:00,31.2,30.4,30.16,SE,145,0.0,0.0,97,0.00,OVC,FEW,0.00,39.0,WeatherDisplay:10.37,2013-01-12 14:00:00,
2013-01-12 09:05:00,31.3,30.5,30.15,SE,145,2.3,2.3,97,0.00,OVC,FEW,0.00,60.0,WeatherDisplay:10.37,2013-01-12 14:05:00,
2013-01-12 09:10:00,31.3,30.5,30.15,SE,145,1.1,1.1,97,0.00,OVC,FEW,0.00,67.0,WeatherDisplay:10.37,2013-01-12 14:10:00,
2013-01-12 09:15:00,31.5,30.7,30.15,SE,145,0.0,0.0,97,0.00,OVC,FEW,0.00,62.0,WeatherDisplay:10.37,2013-01-12 14:15:00,
2013-01-12 09:20:00,31.6,30.8,30.15,SE,145,0.0,0.0,97,0.00,OVC,FEW,0.00,72.0,WeatherDisplay:10.37,2013-01-12 14:20:00,
2013-01-12 09:25:00,31.8,31.0,30.15,SE,145,0.0,0.0,97,0.00,OVC,FEW,0.00,83.0,WeatherDisplay:10.37,2013-01-12 14:25:00,
2013-01-12 09:30:00,32.0,31.2,30.15,SE,145,0.0,0.0,97,0.00,OVC,FEW,0.00,76.0,WeatherDisplay:10.37,2013-01-12 14:30:00,
2013-01-12 09:35:00,32.2,31.4,30.15,SE,145,0.0,0.0,97,0.00,OVC,FEW,0.00,63.0,WeatherDisplay:10.37,2013-01-12 14:35:00,
2013-01-12 09:40:00,32.3,31.5,30.15,SE,145,0.0,0.0,97,0.00,OVC,FEW,0.00,69.0,WeatherDisplay:10.37,2013-01-12 14:40:00,
2013-01-12 09:45:00,32.4,31.6,30.15,SE,145,0.0,0.0,97,0.00,OVC,FEW,0.00,84.0,WeatherDisplay:10.37,2013-01-12 14:45:00,
2013-01-12 09:50:00,32.7,31.9,30.15,SE,145,0.0,0.0,97,0.00,OVC,FEW,0.00,146.0,WeatherDisplay:10.37,2013-01-12 14:50:00,
2013-01-12 09:55:00,32.9,32.1,30.15,SE,145,1.0,0.0,97,0.00,OVC,FEW,0.00,120.0,WeatherDisplay:10.37,2013-01-12 14:55:00,
2013-01-12 10:00:00,33.1,32.3,30.15,SE,145,2.0,2.0,97,0.00,OVC,FEW,0.00,105.0,WeatherDisplay:10.37,2013-01-12 15:00:00,
2013-01-12 10:05:00,33.3,32.5,30.14,SE,145,2.3,2.3,97,0.00,OVC,FEW,0.00,134.0,WeatherDisplay:10.37,2013-01-12 15:05:00,
2013-01-12 10:10:00,33.4,32.6,30.14,SE,145,1.1,1.1,97,0.00,OVC,FEW,0.00,149.0,WeatherDisplay:10.37,2013-01-12 15:10:00,
2013-01-12 10:15:00,33.4,32.4,30.14,SE,145,2.0,2.0,96,0.00,OVC,FEW,0.00,132.0,WeatherDisplay:10.37,2013-01-12 15:15:00,
2013-01-12 10:20:00,33.4,32.4,30.14,SSE,162,1.1,1.1,96,0.00,OVC,FEW,0.00,137.0,WeatherDisplay:10.37,2013-01-12 15:20:00,
2013-01-12 10:25:00,33.4,32.4,30.14,SSE,164,1.1,0.0,96,0.00,OVC,FEW,0.00,135.0,WeatherDisplay:10.37,2013-01-12 15:25:00,
2013-01-12 10:30:00,33.4,32.1,30.14,SSE,163,1.0,1.0,95,0.00,OVC,FEW,0.00,139.0,WeatherDisplay:10.37,2013-01-12 15:30:00,
2013-01-12 10:35:00,33.4,32.1,30.14,SSE,163,1.1,1.1,95,0.00,OVC,FEW,0.00,116.0,WeatherDisplay:10.37,2013-01-12 15:35:00,
2013-01-12 10:40:00,33.5,32.2,30.14,SSE,164,1.1,0.0,95,0.00,OVC,FEW,0.00,111.0,WeatherDisplay:10.37,2013-01-12 15:40:00,
2013-01-12 10:45:00,33.6,32.3,30.14,SSE,164,0.0,0.0,95,0.00,OVC,FEW,0.00,109.0,WeatherDisplay:10.37,2013-01-12 15:45:00,
2013-01-12 10:50:00,33.9,32.6,30.13,SSE,164,0.0,0.0,95,0.00,OVC,FEW,0.00,148.0,WeatherDisplay:10.37,2013-01-12 15:50:00,
2013-01-12 10:55:00,34.0,32.7,30.13,SSE,164,0.0,0.0,95,0.00,OVC,FEW,0.00,125.0,WeatherDisplay:10.37,2013-01-12 15:55:00,
2013-01-12 11:00:00,34.3,33.0,30.13,SSE,164,0.0,0.0,95,0.01,RA,FEW,0.01,135.0,WeatherDisplay:10.37,2013-01-12 16:00:00,
2013-01-12 11:05:00,34.5,33.2,30.12,SSE,163,1.1,0.0,95,0.01,RA,FEW,0.01,160.0,WeatherDisplay:10.37,2013-01-12 16:05:00,
2013-01-12 11:10:00,34.8,33.2,30.12,SSE,163,2.3,2.3,94,0.01,OVC,FEW,0.01,123.0,WeatherDisplay:10.37,2013-01-12 16:10:00,
2013-01-12 11:15:00,34.8,33.2,30.12,SSE,163,3.5,3.5,94,0.01,OVC,FEW,0.01,91.0,WeatherDisplay:10.37,2013-01-12 16:15:00,
2013-01-12 11:20:00,34.7,33.2,30.11,SSE,163,2.3,2.3,94,0.02,RA,FEW,0.02,111.0,WeatherDisplay:10.37,2013-01-12 16:20:00,
2013-01-12 11:25:00,34.7,33.2,30.11,SSE,162,2.3,2.3,94,0.02,RA,FEW,0.02,127.0,WeatherDisplay:10.37,2013-01-12 16:25:00,
2013-01-12 11:30:00,34.7,33.2,30.11,SSE,162,2.3,2.3,94,0.02,OVC,FEW,0.02,121.0,WeatherDisplay:10.37,2013-01-12 16:30:00,
2013-01-12 11:35:00,34.7,33.2,30.11,SSE,162,2.3,0.0,94,0.02,OVC,FEW,0.02,114.0,WeatherDisplay:10.37,2013-01-12 16:35:00,
2013-01-12 11:40:00,34.8,33.0,30.11,SSE,162,1.1,0.0,93,0.03,RA,FEW,0.03,105.0,WeatherDisplay:10.37,2013-01-12 16:40:00,
2013-01-12 11:45:00,34.9,33.1,30.11,SSE,162,2.3,2.3,93,0.03,RA,FEW,0.03,132.0,WeatherDisplay:10.37,2013-01-12 16:45:00,
2013-01-12 11:50:00,35.0,33.4,30.10,SSE,162,1.1,1.1,94,0.03,OVC,FEW,0.03,151.0,WeatherDisplay:10.37,2013-01-12 16:50:00,
2013-01-12 11:55:00,35.2,33.4,30.10,SSE,162,1.1,1.1,93,0.03,OVC,FEW,0.03,165.0,WeatherDisplay:10.37,2013-01-12 16:55:00,
2013-01-12 12:00:00,35.4,33.6,30.10,SSE,161,3.5,3.5,93,0.02,OVC,FEW,0.03,163.0,WeatherDisplay:10.37,2013-01-12 17:00:00,
2013-01-12 12:05:00,35.6,33.8,30.09,SSE,158,4.0,4.0,93,0.03,RA,FEW,0.04,192.0,WeatherDisplay:10.37,2013-01-12 17:05:00,
2013-01-12 12:10:00,35.6,33.8,30.09,SSE,159,3.5,3.5,93,0.03,RA,FEW,0.04,200.0,WeatherDisplay:10.37,2013-01-12 17:10:00,
2013-01-12 12:15:00,35.8,33.7,30.08,SSE,157,3.5,3.5,92,0.03,OVC,FEW,0.04,234.0,WeatherDisplay:10.37,2013-01-12 17:15:00,
2013-01-12 12:20:00,35.8,33.7,30.08,SE,141,5.0,5.0,92,0.02,OVC,FEW,0.04,316.0,WeatherDisplay:10.37,2013-01-12 17:20:00,
2013-01-12 12:25:00,36.0,33.9,30.08,SE,144,2.3,2.3,92,0.03,RA,FEW,0.05,304.0,WeatherDisplay:10.37,2013-01-12 17:25:00,
2013-01-12 12:30:00,36.4,34.3,30.08,SSE,152,3.5,3.5,92,0.03,RA,FEW,0.05,334.0,WeatherDisplay:10.37,2013-01-12 17:30:00,
2013-01-12 12:35:00,36.8,34.7,30.08,SSE,149,3.5,3.5,92,0.03,OVC,FEW,0.05,415.0,WeatherDisplay:10.37,2013-01-12 17:35:00,
2013-01-12 12:40:00,37.5,34.8,30.09,SSE,154,2.3,2.3,90,0.03,RA,FEW,0.06,413.0,WeatherDisplay:10.37,2013-01-12 17:40:00,
2013-01-12 12:45:00,37.8,35.1,30.08,SSE,157,3.5,3.5,90,0.03,RA,FEW,0.06,272.0,WeatherDisplay:10.37,2013-01-12 17:45:00,
2013-01-12 12:50:00,37.8,35.1,30.08,SSE,156,3.0,3.0,90,0.03,OVC,FEW,0.06,248.0,WeatherDisplay:10.37,2013-01-12 17:50:00,
2013-01-12 12:56:00,37.7,35.0,30.08,SSE,160,1.1,1.1,90,0.03,OVC,FEW,0.06,220.0,WeatherDisplay:10.37,2013-01-12 17:56:00,
2013-01-12 13:01:00,37.7,35.0,30.09,SSE,159,3.0,3.0,90,0.03,OVC,FEW,0.06,251.0,WeatherDisplay:10.37,2013-01-12 18:01:00,
2013-01-12 13:06:00,37.8,35.1,30.09,SSE,155,4.0,4.0,90,0.03,RA,FEW,0.07,359.0,WeatherDisplay:10.37,2013-01-12 18:06:00,
2013-01-12 13:11:00,37.8,35.1,30.09,SSE,155,1.1,1.1,90,0.03,RA,FEW,0.07,190.0,WeatherDisplay:10.37,2013-01-12 18:11:00,
2013-01-12 13:16:00,37.8,35.1,30.08,SSE,157,3.5,3.5,90,0.03,CLR,FEW,0.07,172.0,WeatherDisplay:10.37,2013-01-12 18:16:00,
2013-01-12 13:21:00,37.8,35.1,30.09,SSE,167,4.0,4.0,90,0.03,CLR,FEW,0.07,158.0,WeatherDisplay:10.37,2013-01-12 18:21:00,
2013-01-12 13:26:00,37.7,35.0,30.09,SSE,164,2.3,0.0,90,0.02,CLR,FEW,0.07,149.0,WeatherDisplay:10.37,2013-01-12 18:26:00,
2013-01-12 13:31:00,37.8,35.1,30.08,SE,128,5.0,5.0,90,0.03,RA,FEW,0.08,151.0,WeatherDisplay:10.37,2013-01-12 18:31:00,
2013-01-12 13:36:00,37.7,35.0,30.07,SSE,163,4.0,4.0,90,0.03,RA,FEW,0.08,156.0,WeatherDisplay:10.37,2013-01-12 18:36:00,
2013-01-12 13:41:00,37.7,35.3,30.07,SSE,157,4.0,4.0,91,0.02,CLR,FEW,0.08,167.0,WeatherDisplay:10.37,2013-01-12 18:41:00,
2013-01-12 13:46:00,37.7,35.3,30.07,SSE,155,1.1,0.0,91,0.02,CLR,FEW,0.08,156.0,WeatherDisplay:10.37,2013-01-12 18:46:00,
2013-01-12 13:51:00,37.6,35.2,30.07,SSE,149,3.0,3.0,91,0.02,CLR,FEW,0.08,148.0,WeatherDisplay:10.37,2013-01-12 18:51:00,
2013-01-12 13:56:00,37.6,35.2,30.07,SE,128,2.3,2.3,91,0.02,CLR,FEW,0.09,141.0,WeatherDisplay:10.37,2013-01-12 18:56:00,
2013-01-12 14:01:00,37.5,35.1,30.07,SE,130,3.0,3.0,91,0.03,RA,FEW,0.09,125.0,WeatherDisplay:10.37,2013-01-12 19:01:00,
2013-01-12 14:06:00,37.5,35.1,30.08,SE,130,1.1,0.0,91,0.02,RA,FEW,0.09,121.0,WeatherDisplay:10.37,2013-01-12 19:06:00,
2013-01-12 14:11:00,37.4,35.0,30.09,SE,136,3.5,3.5,91,0.02,CLR,FEW,0.09,104.0,WeatherDisplay:10.37,2013-01-12 19:11:00,
2013-01-12 14:16:00,37.4,35.0,30.09,SE,136,2.3,2.3,91,0.02,CLR,FEW,0.09,95.0,WeatherDisplay:10.37,2013-01-12 19:16:00,
2013-01-12 14:21:00,37.3,34.9,30.09,SE,136,2.3,2.3,91,0.02,CLR,FEW,0.09,100.0,WeatherDisplay:10.37,2013-01-12 19:21:00,
2013-01-12 14:26:00,37.2,35.1,30.09,SE,135,5.0,5.0,92,0.02,CLR,FEW,0.09,95.0,WeatherDisplay:10.37,2013-01-12 19:26:00,
2013-01-12 14:31:00,37.1,35.0,30.09,SE,135,0.0,0.0,92,0.01,CLR,FEW,0.09,76.0,WeatherDisplay:10.37,2013-01-12 19:31:00,
2013-01-12 14:36:00,37.0,34.9,30.09,SE,135,3.5,3.5,92,0.01,CLR,FEW,0.09,62.0,WeatherDisplay:10.37,2013-01-12 19:36:00,
2013-01-12 14:41:00,37.0,34.9,30.09,SE,135,3.0,3.0,92,0.01,CLR,FEW,0.09,65.0,WeatherDisplay:10.37,2013-01-12 19:41:00,
2013-01-12 14:46:00,36.9,34.8,30.09,SE,135,2.3,0.0,92,0.01,CLR,FEW,0.09,67.0,WeatherDisplay:10.37,2013-01-12 19:46:00,
2013-01-12 14:51:00,36.9,35.1,30.09,SE,135,2.3,2.3,93,0.01,CLR,FEW,0.09,62.0,WeatherDisplay:10.37,2013-01-12 19:51:00,
2013-01-12 14:56:00,36.8,35.0,30.09,SE,134,0.0,0.0,93,0.01,CLR,FEW,0.09,63.0,WeatherDisplay:10.37,2013-01-12 19:56:00,
2013-01-12 15:01:00,36.8,35.0,30.09,SE,130,4.0,4.0,93,0.00,CLR,FEW,0.09,60.0,WeatherDisplay:10.37,2013-01-12 20:01:00,
2013-01-12 15:06:00,36.8,35.0,30.09,SE,129,3.5,3.5,93,0.00,CLR,FEW,0.09,49.0,WeatherDisplay:10.37,2013-01-12 20:06:00,
2013-01-12 15:11:00,36.8,35.0,30.09,SE,129,1.1,1.1,93,0.00,CLR,FEW,0.09,42.0,WeatherDisplay:10.37,2013-01-12 20:11:00,
2013-01-12 15:16:00,36.8,35.0,30.09,SE,129,1.1,1.1,93,0.00,CLR,FEW,0.09,46.0,WeatherDisplay:10.37,2013-01-12 20:16:00,
2013-01-12 15:21:00,36.7,34.9,30.08,SE,125,4.0,4.0,93,0.00,FEW,,0.09,60.0,WeatherDisplay:10.37,2013-01-12 20:21:00,
2013-01-12 15:26:00,36.7,35.1,30.08,SSE,147,4.0,4.0,94,0.00,FEW,,0.09,62.0,WeatherDisplay:10.37,2013-01-12 20:26:00,
2013-01-12 15:31:00,36.7,34.9,30.09,SSE,147,3.5,3.5,93,0.00,FEW,,0.09,49.0,WeatherDisplay:10.37,2013-01-12 20:31:00,
2013-01-12 15:36:00,36.7,34.9,30.09,SE,146,1.1,0.0,93,0.00,FEW,,0.09,51.0,WeatherDisplay:10.37,2013-01-12 20:36:00,
2013-01-12 15:41:00,36.7,34.9,30.09,SE,146,0.0,0.0,93,0.00,FEW,,0.09,44.0,WeatherDisplay:10.37,2013-01-12 20:41:00,
2013-01-12 15:46:00,36.7,34.9,30.09,SE,146,0.0,0.0,93,0.00,FEW,,0.09,39.0,WeatherDisplay:10.37,2013-01-12 20:46:00,
2013-01-12 15:51:00,36.6,35.0,30.09,SE,146,0.0,0.0,94,0.00,FEW,,0.09,33.0,WeatherDisplay:10.37,2013-01-12 20:51:00,
2013-01-12 15:56:00,36.6,35.0,30.08,SE,146,0.0,0.0,94,0.00,FEW,,0.09,25.0,WeatherDisplay:10.37,2013-01-12 20:56:00,
2013-01-12 16:01:00,36.5,34.9,30.08,SE,146,0.0,0.0,94,0.00,FEW,,0.09,21.0,WeatherDisplay:10.37,2013-01-12 21:01:00,
2013-01-12 16:06:00,36.4,34.8,30.09,SE,146,1.1,0.0,94,0.00,CLR,FEW,0.09,16.0,WeatherDisplay:10.37,2013-01-12 21:06:00,
2013-01-12 16:11:00,36.3,34.7,30.09,SE,146,1.1,1.1,94,0.00,CLR,FEW,0.09,12.0,WeatherDisplay:10.37,2013-01-12 21:11:00,
2013-01-12 16:16:00,36.2,34.6,30.09,SE,146,0.0,0.0,94,0.00,CLR,FEW,0.09,9.0,WeatherDisplay:10.37,2013-01-12 21:16:00,
2013-01-12 16:21:00,36.2,34.9,30.09,SE,146,1.0,1.0,95,0.00,CLR,FEW,0.09,5.0,WeatherDisplay:10.37,2013-01-12 21:21:00,
2013-01-12 16:26:00,36.2,34.9,30.09,SE,146,0.0,0.0,95,0.00,CLR,FEW,0.09,0.0,WeatherDisplay:10.37,2013-01-12 21:26:00,
2013-01-12 16:31:00,36.1,34.5,30.08,SE,146,3.5,3.5,94,0.00,CLR,FEW,0.09,0.0,WeatherDisplay:10.37,2013-01-12 21:31:00,
2013-01-12 16:36:00,36.0,34.4,30.09,SE,146,1.1,1.1,94,0.00,CLR,FEW,0.09,0.0,WeatherDisplay:10.37,2013-01-12 21:36:00,
2013-01-12 16:41:00,35.9,34.3,30.08,SE,146,2.3,2.3,94,0.00,CLR,FEW,0.09,0.0,WeatherDisplay:10.37,2013-01-12 21:41:00,
2013-01-12 16:46:00,35.9,34.3,30.08,SE,146,0.0,0.0,94,0.00,CLR,FEW,0.09,0.0,WeatherDisplay:10.37,2013-01-12 21:46:00,
2013-01-12 16:51:00,35.9,34.3,30.08,SE,146,0.0,0.0,94,0.00,FEW,,0.09,0.0,WeatherDisplay:10.37,2013-01-12 21:51:00,
2013-01-12 16:56:00,35.8,34.5,30.08,SE,146,0.0,0.0,95,0.00,FEW,,0.09,0.0,WeatherDisplay:10.37,2013-01-12 21:56:00,
2013-01-12 17:01:00,35.7,34.4,30.08,SE,146,2.0,0.0,95,0.00,FEW,,0.09,0.0,WeatherDisplay:10.37,2013-01-12 22:01:00,
2013-01-12 17:06:00,35.7,34.4,30.08,SE,146,0.0,0.0,95,0.00,FEW,,0.09,0.0,WeatherDisplay:10.37,2013-01-12 22:06:00,
2013-01-12 17:11:00,35.7,34.4,30.08,SE,146,1.0,1.0,95,0.00,FEW,,0.09,0.0,WeatherDisplay:10.37,2013-01-12 22:11:00,
2013-01-12 17:16:00,35.7,34.4,30.08,SE,146,0.0,0.0,95,0.00,FEW,,0.09,0.0,WeatherDisplay:10.37,2013-01-12 22:16:00,
2013-01-12 17:21:00,35.7,34.4,30.08,SE,146,0.0,0.0,95,0.00,FEW,,0.09,0.0,WeatherDisplay:10.37,2013-01-12 22:21:00,
2013-01-12 17:26:00,35.8,34.5,30.08,SE,146,0.0,0.0,95,0.00,FEW,,0.09,0.0,WeatherDisplay:10.37,2013-01-12 22:26:00,
2013-01-12 17:31:00,35.8,34.5,30.07,SE,146,0.0,0.0,95,0.00,FEW,,0.09,0.0,WeatherDisplay:10.37,2013-01-12 22:31:00,
2013-01-12 17:36:00,35.8,34.5,30.08,SE,146,1.0,0.0,95,0.00,BKN,FEW,0.09,0.0,WeatherDisplay:10.37,2013-01-12 22:36:00,
2013-01-12 17:41:00,35.9,34.6,30.07,SE,146,1.1,0.0,95,0.00,BKN,FEW,0.09,0.0,WeatherDisplay:10.37,2013-01-12 22:41:00,
2013-01-12 17:46:00,35.9,34.6,30.07,SE,146,1.1,0.0,95,0.00,BKN,FEW,0.09,0.0,WeatherDisplay:10.37,2013-01-12 22:46:00,
2013-01-12 17:51:00,35.9,34.6,30.07,SE,146,0.0,0.0,95,0.00,BKN,FEW,0.09,0.0,WeatherDisplay:10.37,2013-01-12 22:51:00,
2013-01-12 17:56:00,35.9,34.6,30.07,SE,146,0.0,0.0,95,0.00,BKN,FEW,0.09,0.0,WeatherDisplay:10.37,2013-01-12 22:56:00,
2013-01-12 18:01:00,35.8,34.5,30.07,SE,146,0.0,0.0,95,0.00,BKN,FEW,0.09,0.0,WeatherDisplay:10.37,2013-01-12 23:01:00,
2013-01-12 18:06:00,35.8,34.5,30.07,SE,146,0.0,0.0,95,0.00,SCT,FEW,0.09,0.0,WeatherDisplay:10.37,2013-01-12 23:06:00,
2013-01-12 18:11:00,35.7,34.4,30.07,SE,146,1.1,0.0,95,0.00,SCT,FEW,0.09,0.0,WeatherDisplay:10.37,2013-01-12 23:11:00,
2013-01-12 18:16:00,35.5,34.2,30.07,SE,146,0.0,0.0,95,0.00,SCT,FEW,0.09,0.0,WeatherDisplay:10.37,2013-01-12 23:16:00,
2013-01-12 18:21:00,35.5,34.5,30.07,SE,146,0.0,0.0,96,0.00,SCT,FEW,0.09,0.0,WeatherDisplay:10.37,2013-01-12 23:21:00,
2013-01-12 18:26:00,35.5,34.5,30.07,SE,146,0.0,0.0,96,0.00,SCT,FEW,0.09,0.0,WeatherDisplay:10.37,2013-01-12 23:26:00,
2013-01-12 18:31:00,35.5,34.5,30.07,SE,146,0.0,0.0,96,0.00,OVC,FEW,0.09,0.0,WeatherDisplay:10.37,2013-01-12 23:31:00,
2013-01-12 18:36:00,35.5,34.5,30.08,SE,146,0.0,0.0,96,0.00,OVC,FEW,0.09,0.0,WeatherDisplay:10.37,2013-01-12 23:36:00,
2013-01-12 18:41:00,35.2,33.9,30.08,SE,146,0.0,0.0,95,0.00,OVC,FEW,0.09,0.0,WeatherDisplay:10.37,2013-01-12 23:41:00,
2013-01-12 18:46:00,35.1,34.1,30.07,SE,146,0.0,0.0,96,0.00,OVC,FEW,0.09,0.0,WeatherDisplay:10.37,2013-01-12 23:46:00,
2013-01-12 18:51:00,35.1,34.1,30.07,SE,146,0.0,0.0,96,0.00,OVC,FEW,0.09,0.0,WeatherDisplay:10.37,2013-01-12 23:51:00,
2013-01-12 18:56:00,35.2,34.2,30.07,SE,146,0.0,0.0,96,0.00,OVC,FEW,0.09,0.0,WeatherDisplay:10.37,2013-01-12 23:56:00,
2013-01-12 19:01:00,35.4,34.4,30.07,SE,146,0.0,0.0,96,0.00,OVC,FEW,0.09,0.0,WeatherDisplay:10.37,2013-01-13 00:01:00,
2013-01-12 19:06:00,35.5,34.5,30.07,SE,146,0.0,0.0,96,0.00,OVC,FEW,0.09,0.0,WeatherDisplay:10.37,2013-01-13 00:06:00,
2013-01-12 19:11:00,35.6,34.6,30.07,SE,146,0.0,0.0,96,0.00,OVC,FEW,0.09,0.0,WeatherDisplay:10.37,2013-01-13 00:11:00,
2013-01-12 19:16:00,35.7,34.7,30.08,SE,146,0.0,0.0,96,0.00,SCT,FEW,0.09,0.0,WeatherDisplay:10.37,2013-01-13 00:16:00,
2013-01-12 19:21:00,35.8,34.8,30.08,SE,146,0.0,0.0,96,0.00,SCT,FEW,0.09,0.0,WeatherDisplay:10.37,2013-01-13 00:21:00,
2013-01-12 19:27:00,35.6,34.6,30.08,SE,146,0.0,0.0,96,0.00,SCT,FEW,0.09,0.0,WeatherDisplay:10.37,2013-01-13 00:27:00,
2013-01-12 19:32:00,35.5,34.5,30.09,SE,146,0.0,0.0,96,0.00,SCT,FEW,0.09,0.0,WeatherDisplay:10.37,2013-01-13 00:32:00,
2013-01-12 19:37:00,35.4,34.4,30.08,SE,146,0.0,0.0,96,0.00,SCT,FEW,0.09,0.0,WeatherDisplay:10.37,2013-01-13 00:37:00,
2013-01-12 19:42:00,35.4,34.4,30.08,SE,146,0.0,0.0,96,0.00,SCT,FEW,0.09,0.0,WeatherDisplay:10.37,2013-01-13 00:42:00,
2013-01-12 19:47:00,35.3,34.3,30.08,SE,146,0.0,0.0,96,0.00,SCT,FEW,0.09,0.0,WeatherDisplay:10.37,2013-01-13 00:47:00,
2013-01-12 19:52:00,35.2,34.2,30.08,SE,146,0.0,0.0,96,0.00,SCT,FEW,0.09,0.0,WeatherDisplay:10.37,2013-01-13 00:52:00,
2013-01-12 19:57:00,34.7,33.4,30.08,SE,146,0.0,0.0,95,0.00,SCT,FEW,0.09,0.0,WeatherDisplay:10.37,2013-01-13 00:57:00,
2013-01-12 20:02:00,34.2,32.9,30.07,SE,146,0.0,0.0,95,0.00,SCT,FEW,0.09,0.0,WeatherDisplay:10.37,2013-01-13 01:02:00,
2013-01-12 20:07:00,33.8,32.5,30.07,SE,146,0.0,0.0,95,0.00,SCT,FEW,0.09,0.0,WeatherDisplay:10.37,2013-01-13 01:07:00,
2013-01-12 20:12:00,33.4,32.1,30.06,SE,146,1.0,1.0,95,0.00,SCT,FEW,0.09,0.0,WeatherDisplay:10.37,2013-01-13 01:12:00,
2013-01-12 20:17:00,33.3,32.0,30.07,SE,146,0.0,0.0,95,0.00,SCT,FEW,0.09,0.0,WeatherDisplay:10.37,2013-01-13 01:17:00,
2013-01-12 20:22:00,33.1,32.1,30.08,SE,145,0.0,0.0,96,0.00,SCT,FEW,0.09,0.0,WeatherDisplay:10.37,2013-01-13 01:22:00,
2013-01-12 20:27:00,33.0,32.0,30.08,SE,145,1.1,0.0,96,0.00,SCT,FEW,0.09,0.0,WeatherDisplay:10.37,2013-01-13 01:27:00,
2013-01-12 20:32:00,33.2,32.2,30.08,SE,145,1.1,0.0,96,0.00,SCT,FEW,0.09,0.0,WeatherDisplay:10.37,2013-01-13 01:32:00,
2013-01-12 20:37:00,33.4,32.6,30.08,SE,145,1.1,0.0,97,0.00,SCT,FEW,0.09,0.0,WeatherDisplay:10.37,2013-01-13 01:37:00,
2013-01-12 20:42:00,33.7,32.9,30.08,SE,145,0.0,0.0,97,0.00,SCT,FEW,0.09,0.0,WeatherDisplay:10.37,2013-01-13 01:42:00,
2013-01-12 20:47:00,34.0,33.2,30.08,SE,145,1.1,0.0,97,0.00,SCT,FEW,0.09,0.0,WeatherDisplay:10.37,2013-01-13 01:47:00,
2013-01-12 20:53:00,34.1,33.3,30.08,SE,145,0.0,0.0,97,0.00,SCT,FEW,0.09,0.0,WeatherDisplay:10.37,2013-01-13 01:53:00,
2013-01-12 20:58:00,34.3,33.5,30.08,SE,146,2.0,2.0,97,0.00,SCT,FEW,0.09,0.0,WeatherDisplay:10.37,2013-01-13 01:58:00,
2013-01-12 21:03:00,33.0,31.7,30.08,SE,146,0.0,0.0,95,0.00,SCT,FEW,0.09,0.0,WeatherDisplay:10.37,2013-01-13 02:03:00,
2013-01-12 21:09:00,31.9,30.6,30.08,SE,146,0.0,0.0,95,0.00,SCT,FEW,0.09,0.0,WeatherDisplay:10.37,2013-01-13 02:09:00,
2013-01-12 21:14:00,31.1,29.8,30.08,SE,146,0.0,0.0,95,0.00,SCT,FEW,0.09,0.0,WeatherDisplay:10.37,2013-01-13 02:14:00,
2013-01-12 21:19:00,30.7,29.7,30.08,SE,146,0.0,0.0,96,0.00,SCT,FEW,0.09,0.0,WeatherDisplay:10.37,2013-01-13 02:19:00,
2013-01-12 21:24:00,30.5,29.5,30.08,SE,145,2.3,2.3,96,0.00,SCT,FEW,0.09,0.0,WeatherDisplay:10.37,2013-01-13 02:24:00,
2013-01-12 21:29:00,30.9,29.9,30.08,SE,145,0.0,0.0,96,0.00,SCT,FEW,0.09,0.0,WeatherDisplay:10.37,2013-01-13 02:29:00,
2013-01-12 21:34:00,31.9,31.1,30.08,SE,145,1.1,0.0,97,0.00,SCT,FEW,0.09,0.0,WeatherDisplay:10.37,2013-01-13 02:34:00,
2013-01-12 21:39:00,32.8,32.0,30.08,SE,145,0.0,0.0,97,0.00,SCT,FEW,0.09,0.0,WeatherDisplay:10.37,2013-01-13 02:39:00,
2013-01-12 21:44:00,32.8,32.0,30.07,SE,145,0.0,0.0,97,0.00,SCT,FEW,0.09,0.0,WeatherDisplay:10.37,2013-01-13 02:44:00,
2013-01-12 21:49:00,32.5,31.7,30.07,SE,145,0.0,0.0,97,0.00,SCT,FEW,0.09,0.0,WeatherDisplay:10.37,2013-01-13 02:49:00,
2013-01-12 21:54:00,32.1,31.3,30.07,SE,145,0.0,0.0,97,0.00,SCT,FEW,0.09,0.0,WeatherDisplay:10.37,2013-01-13 02:54:00,
2013-01-12 21:59:00,31.9,30.9,30.07,SE,145,0.0,0.0,96,0.00,SCT,FEW,0.09,0.0,WeatherDisplay:10.37,2013-01-13 02:59:00,
2013-01-12 22:04:00,31.4,30.4,30.07,SE,145,0.0,0.0,96,0.00,SCT,FEW,0.09,0.0,WeatherDisplay:10.37,2013-01-13 03:04:00,
2013-01-12 22:09:00,31.0,30.0,30.08,SE,145,0.0,0.0,96,0.00,SCT,FEW,0.09,0.0,WeatherDisplay:10.37,2013-01-13 03:09:00,
2013-01-12 22:14:00,30.6,29.6,30.07,SE,145,0.0,0.0,96,0.00,SCT,FEW,0.09,0.0,WeatherDisplay:10.37,2013-01-13 03:14:00,
2013-01-12 22:19:00,30.4,29.4,30.08,SE,145,0.0,0.0,96,0.00,SCT,FEW,0.09,0.0,WeatherDisplay:10.37,2013-01-13 03:19:00,
2013-01-12 22:24:00,30.2,29.2,30.07,SE,145,0.0,0.0,96,0.00,SCT,FEW,0.09,0.0,WeatherDisplay:10.37,2013-01-13 03:24:00,
2013-01-12 22:29:00,30.0,29.0,30.06,SE,145,0.0,0.0,96,0.00,SCT,FEW,0.09,0.0,WeatherDisplay:10.37,2013-01-13 03:29:00,
2013-01-12 22:34:00,29.9,28.9,30.07,SE,145,0.0,0.0,96,0.00,SCT,FEW,0.09,0.0,WeatherDisplay:10.37,2013-01-13 03:34:00,
2013-01-12 22:39:00,29.9,29.2,30.07,SE,145,0.0,0.0,97,0.00,SCT,FEW,0.09,0.0,WeatherDisplay:10.37,2013-01-13 03:39:00,
2013-01-12 22:44:00,29.9,29.2,30.08,SE,145,0.0,0.0,97,0.00,SCT,FEW,0.09,0.0,WeatherDisplay:10.37,2013-01-13 03:44:00,
2013-01-12 22:49:00,29.9,29.2,30.08,SE,145,0.0,0.0,97,0.00,SCT,FEW,0.09,0.0,WeatherDisplay:10.37,2013-01-13 03:49:00,
2013-01-12 22:54:00,30.2,29.5,30.09,SE,145,0.0,0.0,97,0.00,SCT,FEW,0.09,0.0,WeatherDisplay:10.37,2013-01-13 03:54:00,
2013-01-12 22:59:00,31.2,30.4,30.09,SE,145,0.0,0.0,97,0.00,SCT,FEW,0.09,0.0,WeatherDisplay:10.37,2013-01-13 03:59:00,
2013-01-12 23:04:00,32.2,31.4,30.10,SE,145,0.0,0.0,97,0.00,SCT,FEW,0.09,0.0,WeatherDisplay:10.37,2013-01-13 04:04:00,
2013-01-12 23:09:00,32.4,31.6,30.10,SE,145,0.0,0.0,97,0.00,SCT,FEW,0.09,0.0,WeatherDisplay:10.37,2013-01-13 04:09:00,
2013-01-12 23:14:00,32.4,31.6,30.10,SE,145,0.0,0.0,97,0.00,SCT,FEW,0.09,0.0,WeatherDisplay:10.37,2013-01-13 04:14:00,
2013-01-12 23:19:00,32.4,31.6,30.10,SE,145,0.0,0.0,97,0.00,SCT,FEW,0.09,0.0,WeatherDisplay:10.37,2013-01-13 04:19:00,
2013-01-12 23:24:00,32.3,31.5,30.10,SE,145,0.0,0.0,97,0.00,SCT,FEW,0.09,0.0,WeatherDisplay:10.37,2013-01-13 04:24:00,
2013-01-12 23:29:00,32.0,31.2,30.10,SE,145,0.0,0.0,97,0.00,SCT,FEW,0.09,0.0,WeatherDisplay:10.37,2013-01-13 04:29:00,
2013-01-12 23:34:00,31.7,30.9,30.10,SE,145,0.0,0.0,97,0.00,SCT,FEW,0.09,0.0,WeatherDisplay:10.37,2013-01-13 04:34:00,
2013-01-12 23:39:00,31.4,30.6,30.09,SE,145,0.0,0.0,97,0.00,SCT,FEW,0.09,0.0,WeatherDisplay:10.37,2013-01-13 04:39:00,
2013-01-12 23:45:00,31.2,30.4,30.09,SE,145,0.0,0.0,97,0.00,SCT,FEW,0.09,0.0,WeatherDisplay:10.37,2013-01-13 04:45:00,
2013-01-12 23:50:00,31.0,30.2,30.08,SE,145,0.0,0.0,97,0.00,SCT,FEW,0.09,0.0,WeatherDisplay:10.37,2013-01-13 04:50:00,
2013-01-12 23:55:00,30.9,30.1,30.09,SE,145,0.0,0.0,97,0.00,SCT,FEW,0.09,0.0,WeatherDisplay:10.37,2013-01-13 04:55:00,